Change the Weather History Date:

Wednesday, November 6, 2013

  Actual Average Record
Temperature  
Mean Temperature 53 °F 48 °F  
Max Temperature 55 °F 55 °F 69 °F (2006)
Min Temperature 51 °F 40 °F 24 °F (1935)
Degree Days  
Heating Degree Days 12 17  
Month to date heating degree days 87 100  
Since 1 July heating degree days 557 632  
Cooling Degree Days 0 0  
Month to date cooling degree days 0 0  
Year to date cooling degree days 502 290  
Growing Degree Days 3 (Base 50)    
Moisture  
Dew Point 52 °F    
Average Humidity 93    
Maximum Humidity 100    
Minimum Humidity 86    
Precipitation  
Precipitation 0.25 in 0.19 in 1.67 in (2006)
Month to date precipitation 0.87 1.04  
Year to date precipitation 20.52 27.35  
Snow  
Snow 0.00 in - - ()
Month to date snowfall 0.0  
Snow Depth 0.00 in    
Sea Level Pressure  
Sea Level Pressure 30.20 in    
Wind  
Wind Speed 4 mph (North)    
Max Wind Speed 9 mph    
Max Gust Speed 12 mph    
Visibility 4 miles    
Events Fog , Rain    
T = Trace of Precipitation, MM = Missing Value Source: NWS Daily Summary

Daily Weather History Graph

Daily Weather History Graph

Search for Another Location

Airport or City:

Trip Planner

Search our weather history database for the weather conditions in past years. The results will help you decide how hot, cold, wet, or windy it might be!

Date:

Astronomy

Nov. 06, 2013 Rise Set
Actual Time 6:57 AM PST 4:53 PM PST
Civil Twilight 6:26 AM PST 5:24 PM PST
Nautical Twilight 5:51 AM PST 5:59 PM PST
Astronomical Twilight 5:17 AM PST 6:33 PM PST
Moon 10:21 AM PST (11/6) 8:00 PM PST (11/6)
Length of Visible Light 10h 57m
Length of Day
9h 55m
Waxing Crescent, 14% of the Moon is Illuminated
Nov 6
Waxing Crescent
Nov 9
First Quarter
Nov 17
Full
Nov 25
Last Quarter
Dec 2
New

Hourly Weather History & Observations

Time (PST) Temp. Dew Point Humidity Pressure Visibility Wind Dir Wind Speed Gust Speed Precip Events Conditions
12:56 AM 54.0 °F 52.0 °F 93% 30.25 in 10.0 mi South 5.8 mph - N/A   Overcast
1:56 AM 55.0 °F 52.0 °F 89% 30.25 in 10.0 mi South 9.2 mph - N/A   Overcast
2:56 AM 54.0 °F 52.0 °F 93% 30.25 in 10.0 mi South 3.5 mph - N/A   Overcast
3:38 AM 55.4 °F 51.8 °F 88% 30.24 in 10.0 mi Calm Calm - N/A   Overcast
3:51 AM 55.4 °F 51.8 °F 88% 30.24 in 10.0 mi SSE 3.5 mph - N/A   Overcast
3:56 AM 55.0 °F 52.0 °F 89% 30.24 in 10.0 mi SSE 3.5 mph - N/A   Overcast
4:13 AM 55.4 °F 51.8 °F 88% 30.23 in 10.0 mi South 4.6 mph - N/A   Overcast
4:52 AM 53.6 °F 53.6 °F 100% 30.25 in 6.0 mi Calm Calm - 0.01 in Rain Light Rain
4:56 AM 54.0 °F 52.0 °F 93% 30.25 in 4.0 mi NNW 3.5 mph - 0.01 in Rain Light Rain
5:08 AM 53.6 °F 51.8 °F 94% 30.25 in 2.5 mi North 3.5 mph - 0.00 in   Overcast
5:23 AM 51.8 °F 51.8 °F 100% 30.25 in 3.0 mi NNW 5.8 mph - 0.00 in   Overcast
5:54 AM 51.8 °F 51.8 °F 100% 30.25 in 2.5 mi NNW 3.5 mph - 0.00 in Rain Light Rain
5:56 AM 52.0 °F 51.1 °F 97% 30.25 in 2.5 mi NNW 3.5 mph - 0.01 in Rain Light Rain
6:09 AM 51.8 °F 51.8 °F 100% 30.25 in 3.0 mi NNW 3.5 mph - 0.00 in   Overcast
6:28 AM 51.8 °F 51.8 °F 100% 30.25 in 2.5 mi NNW 6.9 mph - 0.00 in   Overcast
6:39 AM 51.8 °F 51.8 °F 100% 30.25 in 3.0 mi NNW 5.8 mph - 0.00 in   Overcast
6:56 AM 51.1 °F 51.1 °F 100% 30.26 in 2.5 mi NNW 3.5 mph - 0.00 in Rain Light Rain
7:04 AM 51.8 °F 51.8 °F 100% 30.26 in 1.5 mi NNW 5.8 mph - 0.01 in Rain Light Rain
7:56 AM 51.1 °F 51.1 °F 100% 30.27 in 1.0 mi Calm Calm - 0.02 in   Overcast
8:56 AM 51.1 °F 50.0 °F 96% 30.29 in 1.5 mi NNW 3.5 mph - 0.01 in Rain Light Rain
9:54 AM 51.8 °F 50.0 °F 94% 30.28 in 2.0 mi North 4.6 mph - 0.03 in Rain Light Rain
9:56 AM 52.0 °F 50.0 °F 93% 30.28 in 2.0 mi NNW 3.5 mph - 0.03 in Rain Light Rain
10:56 AM 52.0 °F 51.1 °F 97% 30.28 in 2.5 mi Calm Calm - 0.06 in Rain Light Rain
11:56 AM 53.1 °F 51.1 °F 93% 30.27 in 2.5 mi NE 3.5 mph - 0.03 in Rain Light Rain
12:22 PM 53.6 °F 51.8 °F 94% 30.26 in 3.0 mi Calm Calm - 0.01 in Rain Light Rain
12:56 PM 53.1 °F 52.0 °F 96% 30.25 in 10.0 mi Calm Calm - 0.01 in   Overcast
1:56 PM 54.0 °F 52.0 °F 93% 30.22 in 10.0 mi Calm Calm - 0.00 in   Overcast
2:56 PM 54.0 °F 52.0 °F 93% 30.21 in 6.0 mi Calm Calm - 0.02 in Rain Light Rain
3:56 PM 54.0 °F 53.1 °F 97% 30.20 in 3.0 mi Calm Calm - 0.02 in Rain Light Rain
4:21 PM 53.6 °F 53.6 °F 100% 30.19 in 2.5 mi Calm Calm - 0.02 in Rain Light Rain
4:28 PM 53.6 °F 53.6 °F 100% 30.19 in 4.0 mi NNW 4.6 mph - 0.02 in Rain Light Rain
4:56 PM 53.1 °F 53.1 °F 100% 30.18 in 5.0 mi Calm Calm - 0.03 in Rain Light Rain
5:56 PM 53.1 °F 52.0 °F 96% 30.17 in 6.0 mi Calm Calm - 0.00 in Rain Light Rain
6:56 PM 53.1 °F 52.0 °F 96% 30.17 in 4.0 mi Calm Calm - 0.01 in Rain Light Rain
7:25 PM 53.6 °F 53.6 °F 100% 30.16 in 1.8 mi Calm Calm - 0.00 in   Overcast
7:39 PM 53.6 °F 53.6 °F 100% 30.15 in 2.0 mi Calm Calm - 0.00 in Rain Light Rain
7:51 PM 53.6 °F 53.6 °F 100% 30.15 in 1.5 mi Calm Calm - 0.01 in Rain Light Rain
7:56 PM 53.1 °F 53.1 °F 100% 30.15 in 1.5 mi Calm Calm - 0.01 in Rain Light Rain
8:03 PM 53.6 °F 53.6 °F 100% 30.15 in 1.0 mi Calm Calm - 0.00 in Rain Light Rain
8:26 PM 53.6 °F 53.6 °F 100% 30.15 in 0.5 mi Calm Calm - 0.00 in Fog Fog
8:40 PM 53.6 °F 51.8 °F 94% 30.14 in 1.5 mi Calm Calm - 0.00 in Rain Light Rain
8:48 PM 53.6 °F 51.8 °F 94% 30.14 in 2.5 mi Calm Calm - 0.00 in Rain Light Rain
8:56 PM 53.1 °F 52.0 °F 96% 30.14 in 4.0 mi NE 3.5 mph - 0.00 in Rain Light Rain
9:26 PM 53.6 °F 53.6 °F 100% 30.14 in 2.0 mi Calm Calm - 0.00 in Rain Light Rain
9:31 PM 53.6 °F 51.8 °F 94% 30.13 in 1.2 mi Calm Calm - 0.00 in   Overcast
9:56 PM 53.1 °F 52.0 °F 96% 30.13 in 1.0 mi Calm Calm - 0.00 in   Mist
10:04 PM 53.6 °F 51.8 °F 94% 30.13 in 0.8 mi Calm Calm - N/A   Mist
10:20 PM 53.6 °F 53.6 °F 100% 30.13 in 1.0 mi Calm Calm - N/A   Mist
10:43 PM 53.6 °F 53.6 °F 100% 30.11 in 2.0 mi Calm Calm - N/A   Overcast
10:52 PM 53.6 °F 51.8 °F 94% 30.10 in 1.2 mi SE 3.5 mph - N/A   Overcast
10:56 PM 53.1 °F 52.0 °F 96% 30.10 in 0.8 mi SE 3.5 mph - N/A   Overcast
11:14 PM 53.6 °F 51.8 °F 94% 30.10 in 1.0 mi Calm Calm - N/A   Overcast
11:48 PM 53.6 °F 51.8 °F 94% 30.09 in 2.0 mi Calm Calm - N/A   Overcast
11:56 PM 53.1 °F 52.0 °F 96% 30.09 in 2.5 mi Calm Calm - N/A   Overcast